When you browse on this site, cookies collect data to enhance your experience and personalize the content and advertising you see.
Visit our Privacy Policy to learn more. By continuing to use the site, you agree to this use of cookies and data.
  • In Netherlands
  • List of Countries
  • For 7 days
  • Water Temperature
  • Satellite Maps
  • Weather Map
  • Weather Widgets
  • user-avatar
    Login

    Hourly Weather Algiers

    Today, 20 January, Sunday

    Time Temperature Precipitation Wind Pressure Humidity
    00:00 +10°C° 0 mm 3 mps 747 mmHg 67%
    01:00 +10°C° 0 mm 4 mps 747 mmHg 66%
    02:00 +10°C° 0 mm 4 mps 747 mmHg 66%
    03:00 +10°C° 0 mm 4 mps 746 mmHg 66%
    04:00 +10°C° 0 mm 4 mps 746 mmHg 67%
    05:00 +10°C° 0 mm 4 mps 745 mmHg 68%
    06:00 +10°C° 0 mm 4 mps 745 mmHg 69%
    07:00 +10°C° 0.9 mm 4 mps 745 mmHg 72%
    08:00 +9°C° 0.9 mm 5 mps 744 mmHg 76%
    09:00 +10°C° 0.9 mm 5 mps 744 mmHg 79%
    10:00 +10°C° 1.9 mm 5 mps 744 mmHg 80%
    11:00 +11°C° 1.9 mm 4 mps 744 mmHg 80%
    12:00 +11°C° 1.9 mm 4 mps 743 mmHg 81%
    13:00 +11°C° 0.4 mm 3 mps 743 mmHg 79%
    14:00 +12°C° 0.4 mm 3 mps 743 mmHg 77%
    15:00 +14°C° 0.4 mm 2 mps 743 mmHg 74%
    16:00 +13°C° 0.3 mm 3 mps 743 mmHg 76%
    17:00 +12°C° 0.3 mm 3 mps 743 mmHg 77%
    18:00 +12°C° 0.3 mm 4 mps 743 mmHg 79%
    19:00 +12°C° 0.5 mm 4 mps 743 mmHg 82%
    20:00 +12°C° 0.5 mm 4 mps 744 mmHg 84%
    21:00 +12°C° 0.5 mm 5 mps 744 mmHg 87%
    22:00 +11°C° 1.1 mm 6 mps 744 mmHg 85%
    23:00 +11°C° 1.1 mm 7 mps 744 mmHg 83%

    Tomorrow, 21 January, Monday

    Time Temperature Precipitation Wind Pressure Humidity
    00:00 +10°C° 1.1 mm 8 mps 744 mmHg 81%
    01:00 +10°C° 0.5 mm 8 mps 744 mmHg 80%
    02:00 +10°C° 0.5 mm 9 mps 745 mmHg 78%
    03:00 +10°C° 0.5 mm 9 mps 745 mmHg 76%
    04:00 +10°C° 0.7 mm 9 mps 745 mmHg 77%
    05:00 +9°C° 0.7 mm 10 mps 745 mmHg 77%
    06:00 +9°C° 0.7 mm 10 mps 745 mmHg 77%
    07:00 +10°C° 1 mm 9 mps 746 mmHg 78%
    08:00 +10°C° 1 mm 8 mps 747 mmHg 78%
    09:00 +9°C° 1 mm 8 mps 747 mmHg 78%
    10:00 +9°C° 1.2 mm 7 mps 747 mmHg 79%
    11:00 +9°C° 1.2 mm 7 mps 748 mmHg 79%
    12:00 +9°C° 1.2 mm 6 mps 748 mmHg 79%
    13:00 +9°C° 1.1 mm 6 mps 748 mmHg 79%
    14:00 +9°C° 1.1 mm 6 mps 748 mmHg 78%
    15:00 +9°C° 1.1 mm 5 mps 749 mmHg 78%
    16:00 +9°C° 0.8 mm 5 mps 749 mmHg 78%
    17:00 +10°C° 0.8 mm 4 mps 749 mmHg 78%
    18:00 +10°C° 0.8 mm 3 mps 750 mmHg 78%
    19:00 +10°C° 0.5 mm 3 mps 750 mmHg 78%
    20:00 +9°C° 0.5 mm 2 mps 751 mmHg 78%
    21:00 +10°C° 0.5 mm 1 mps 751 mmHg 78%
    22:00 +9°C° 0.7 mm 2 mps 751 mmHg 79%
    23:00 +9°C° 0.7 mm 2 mps 751 mmHg 80%

    Day after tomorrow, 22 January, Tuesday

    Time Temperature Precipitation Wind Pressure Humidity
    00:00 +8°C° 0.7 mm 2 mps 751 mmHg 81%
    01:00 +8°C° 0.8 mm 2 mps 751 mmHg 82%
    02:00 +8°C° 0.8 mm 3 mps 750 mmHg 82%
    03:00 +8°C° 0.8 mm 3 mps 750 mmHg 83%
    04:00 +8°C° 0.5 mm 3 mps 750 mmHg 80%
    05:00 +8°C° 0.5 mm 3 mps 750 mmHg 78%
    06:00 +8°C° 0.5 mm 3 mps 750 mmHg 76%
    07:00 +7°C° 0.3 mm 4 mps 750 mmHg 73%
    08:00 +8°C° 0.3 mm 4 mps 750 mmHg 70%
    09:00 +9°C° 0.3 mm 5 mps 750 mmHg 67%
    10:00 +9°C° 0.2 mm 6 mps 750 mmHg 63%
    11:00 +10°C° 0.2 mm 7 mps 749 mmHg 60%
    12:00 +11°C° 0.2 mm 7 mps 749 mmHg 57%
    13:00 +11°C° 0 mm 8 mps 748 mmHg 55%
    14:00 +11°C° 0 mm 8 mps 747 mmHg 53%
    15:00 +10°C° 0 mm 8 mps 747 mmHg 51%
    16:00 +10°C° 0 mm 8 mps 746 mmHg 53%
    17:00 +9°C° 0 mm 7 mps 746 mmHg 55%
    18:00 +9°C° 0 mm 7 mps 746 mmHg 58%
    19:00 +9°C° 0.2 mm 7 mps 745 mmHg 59%
    20:00 +9°C° 0.2 mm 7 mps 745 mmHg 61%
    21:00 +8°C° 0.2 mm 7 mps 745 mmHg 63%
    22:00 +8°C° 1.7 mm 7 mps 744 mmHg 70%
    23:00 +7°C° 1.7 mm 8 mps 743 mmHg 77%

    23 January, Wednesday

    Time Temperature Precipitation Wind Pressure Humidity
    00:00 +7°C° 1.7 mm 9 mps 742 mmHg 85%
    01:00 +7°C° 3.3 mm 9 mps 741 mmHg 83%
    02:00 +7°C° 3.3 mm 9 mps 741 mmHg 81%
    03:00 +7°C° 3.3 mm 9 mps 740 mmHg 79%
    04:00 +8°C° 1.2 mm 10 mps 740 mmHg 73%
    05:00 +8°C° 1.2 mm 11 mps 741 mmHg 66%
    06:00 +8°C° 1.2 mm 12 mps 741 mmHg 59%
    07:00 +8°C° 0.6 mm 12 mps 741 mmHg 58%
    08:00 +8°C° 0.6 mm 12 mps 741 mmHg 57%
    09:00 +8°C° 0.6 mm 13 mps 741 mmHg 57%
    10:00 +8°C° 0.7 mm 13 mps 741 mmHg 58%
    11:00 +8°C° 0.7 mm 13 mps 741 mmHg 60%
    12:00 +8°C° 0.7 mm 14 mps 741 mmHg 61%
    13:00 +8°C° 1.7 mm 14 mps 740 mmHg 66%
    14:00 +8°C° 1.7 mm 14 mps 739 mmHg 70%
    15:00 +8°C° 1.7 mm 14 mps 738 mmHg 74%
    16:00 +8°C° 1.9 mm 14 mps 738 mmHg 74%
    17:00 +8°C° 1.9 mm 14 mps 738 mmHg 74%
    18:00 +8°C° 1.9 mm 14 mps 738 mmHg 75%
    19:00 +8°C° 0.8 mm 14 mps 738 mmHg 70%
    20:00 +8°C° 0.8 mm 13 mps 739 mmHg 65%
    21:00 +7°C° 0.8 mm 13 mps 739 mmHg 61%
    22:00 +7°C° 0.4 mm 12 mps 740 mmHg 60%
    23:00 +7°C° 0.4 mm 11 mps 740 mmHg 60%

    24 January, Thursday

    Time Temperature Precipitation Wind Pressure Humidity
    00:00 +7°C° 0.4 mm 10 mps 740 mmHg 60%
    01:00 +7°C° 0.3 mm 10 mps 740 mmHg 60%
    02:00 +6°C° 0.3 mm 10 mps 740 mmHg 59%
    03:00 +6°C° 0.3 mm 10 mps 739 mmHg 59%
    04:00 +6°C° 0.2 mm 10 mps 740 mmHg 58%
    05:00 +6°C° 0.2 mm 10 mps 740 mmHg 57%
    06:00 +6°C° 0.2 mm 10 mps 740 mmHg 56%
    07:00 +6°C° 0.3 mm 9 mps 741 mmHg 56%
    08:00 +6°C° 0.3 mm 8 mps 742 mmHg 56%
    09:00 +6°C° 0.3 mm 7 mps 743 mmHg 56%
    10:00 +6°C° 0.2 mm 7 mps 743 mmHg 56%
    11:00 +8°C° 0.2 mm 6 mps 743 mmHg 55%
    12:00 +8°C° 0.2 mm 5 mps 744 mmHg 55%
    13:00 +8°C° 0.1 mm 5 mps 744 mmHg 55%
    14:00 +8°C° 0.1 mm 5 mps 744 mmHg 55%
    15:00 +8°C° 0.1 mm 4 mps 745 mmHg 54%
    16:00 +8°C° 0.1 mm 4 mps 745 mmHg 56%
    17:00 +8°C° 0.1 mm 4 mps 746 mmHg 58%
    18:00 +8°C° 0.1 mm 3 mps 746 mmHg 60%
    19:00 +8°C° 0.1 mm 3 mps 746 mmHg 61%
    20:00 +8°C° 0.1 mm 3 mps 747 mmHg 62%
    21:00 +7°C° 0.1 mm 4 mps 747 mmHg 63%
    22:00 +7°C° 0.1 mm 4 mps 747 mmHg 63%
    23:00 +6°C° 0.1 mm 5 mps 747 mmHg 63%

    25 January, Friday

    Time Temperature Precipitation Wind Pressure Humidity
    00:00 +6°C° 0.1 mm 5 mps 747 mmHg 64%
    01:00 +6°C° 0 mm 5 mps 746 mmHg 62%
    02:00 +6°C° 0 mm 5 mps 746 mmHg 61%
    03:00 +5°C° 0 mm 5 mps 745 mmHg 59%
    04:00 +5°C° 0 mm 5 mps 745 mmHg 59%
    05:00 +6°C° 0 mm 5 mps 745 mmHg 59%
    06:00 +6°C° 0 mm 5 mps 745 mmHg 58%
    07:00 +6°C° 0 mm 5 mps 745 mmHg 59%
    08:00 +7°C° 0 mm 5 mps 745 mmHg 60%
    09:00 +7°C° 0 mm 5 mps 745 mmHg 60%
    10:00 +8°C° 0.4 mm 4 mps 745 mmHg 65%
    11:00 +8°C° 0.4 mm 4 mps 745 mmHg 70%
    12:00 +10°C° 0.4 mm 4 mps 745 mmHg 74%
    13:00 +9°C° 0.3 mm 5 mps 746 mmHg 69%
    14:00 +9°C° 0.3 mm 6 mps 746 mmHg 64%
    15:00 +10°C° 0.3 mm 8 mps 747 mmHg 59%
    16:00 +9°C° 0 mm 7 mps 748 mmHg 59%
    17:00 +8°C° 0 mm 7 mps 748 mmHg 59%
    18:00 +8°C° 0 mm 6 mps 749 mmHg 59%
    19:00 +7°C° 0 mm 6 mps 750 mmHg 59%
    20:00 +7°C° 0 mm 6 mps 751 mmHg 60%
    21:00 +7°C° 0 mm 5 mps 751 mmHg 60%
    22:00 +7°C° 0 mm 5 mps 752 mmHg 61%
    23:00 +7°C° 0 mm 5 mps 752 mmHg 62%
    Show more